Location: Civry
(47.2902°N, 4.6156°E)
Time: 08:03:27
(UTC+00:00)

Cosmos 2082 Rocket - Pass Details

Date: 09 April 2020
Orbit: 831 x 855 km, 71.0° (Epoch: 02 June)

Event Time Altitude Azimuth Distance (km) Brightness Sun altitude
Exits shadow 22:15:20 57° 4° (N) 983 2.6 -31.4°
Drops below altitude 10° 22:19:54 10° 25° (NNE) 2,472 5.1 -31.7°
Sets 22:22:23 0° 27° (NNE) 3,414 5.9 -31.9°
